Hourly Data Report for September 18, 2017

All times are specified in Local Standard Time (LST). Add 1 hour to adjust for Daylight Saving Time where and when it is observed.

BUCTOUCHE CDA CS
NEW BRUNSWICK

46°25'49.006" N
64°46'05.009" W
35.90 m
8100593
71666
ABT

Download Data

Hourly Data (September 2017)
Hourly Data Report for September 18, 2017
Temp Definition
°C
Dew Point Temp Definition
°C
Rel Hum Definition
%
Wind Dir Definition
10's deg

Wind Spd Definition
km/h
Visibility Definition
km
Stn Press Definition
kPa
Hmdx Definition


Wind Chill Definition


Weather Definition


TIME
00:00 16.1 15.3 95 6 3   101.74     LegendNANA
01:00 16.0 15.2 95 10 4   101.71     LegendNANA
02:00 16.0 15.2 95 11 4   101.73     LegendNANA
03:00 16.0 15.3 96 7 3   101.70     LegendNANA
04:00 16.0 15.3 96 9 4   101.73     LegendNANA
05:00 15.8 15.1 96 8 3   101.74     LegendNANA
06:00 15.3 14.6 96 9 7   101.81     LegendNANA
07:00 15.6 14.9 96 6 7   101.85     LegendNANA
08:00 16.0 15.3 96 10 7   101.88     LegendNANA
09:00 15.6 14.9 96 6 8   101.93     LegendNANA
10:00 15.7 15.0 96 10 11   101.92     LegendNANA
11:00 16.0 15.3 96 10 9   101.92     LegendNANA
12:00 16.8 16.1 95 13 9   101.89     LegendNANA
13:00 18.7 17.2 91 10 6   101.87     LegendNANA
14:00 19.3 17.2 88 5 5   101.86     LegendNANA
15:00 19.1 17.1 88 6 7   101.87     LegendNANA
16:00 18.4 16.7 90 7 8   101.87     LegendNANA
17:00 18.0 16.4 91 8 9   101.89     LegendNANA
18:00 17.9 16.5 92 9 5   101.92     LegendNANA
19:00 17.6 16.5 93 6 7   101.92     LegendNANA
20:00 16.5 15.5 94 6 5   101.95     LegendNANA
21:00 15.8 15.0 95 10 4   101.96     LegendNANA
22:00 14.4 13.6 95   0   101.96     LegendNANA
23:00 16.4 15.6 95 17 6   101.95     LegendNANA

Notes on Data Quality.

Legend

  • E = Estimated
  • M = Missing
  • NA = Not Available
  • ‡ = Partner data that is not subject to review by the National Climate Archives
Date modified: